Home   Weather   Paris Mountain   Past weeks
Flag for USA

Past Weather in Paris Mountain, Georgia, USA — Yesterday and Last 2 Weeks

Now
53 °F

Overcast.


Feels Like: 49 °F
Forecast: 62 / 49 °F
Wind: 14 mph from South

Location: Lovell Field

Current Time: Dec 9, 2019 at 11:23:28 am

Latest Report: Dec 9, 2019 at 10:53 am


Visibility: 8 mi

Pressure: 29.99 "Hg

Humidity: 66%

Dew Point: 42 °F

Location of Paris MountainLocation

Past Weather in Paris Mountain — Graph

°F

Paris Mountain Temperature Yesterday

Maximum temperature yesterday: 58 °F (at 2:53 pm)
Minimum temperature yesterday: 37 °F (at 5:53 am)
Average temperature yesterday: 49 °F

High & Low Weather Summary for the Past Weeks

 TemperatureHumidityPressure
High70 °F (Nov 30, 1:53 pm)100% (Nov 25, 4:01 am)30.41 "Hg (Nov 25, 4:01 am)
Low31 °F (Dec 4, 5:53 am)25% (Dec 5, 3:53 pm)29.58 "Hg (Dec 1, 2:19 am)
Average50 °F68%30.04 "Hg
* Reported Nov 24 9:53 am — Dec 9 9:53 am, Paris Mountain. Weather by CustomWeather, © 2019

Note: Actual official high and low records may vary slightly from our data, if they occured in-between our weather recording intervals... More about our weather records

Paris Mountain Weather History for the Previous 24 Hours

Scroll right to see more
 ConditionsComfort  
Time TempWeatherWind HumidityBarometerVisibility
9:53 am
Mon, Dec 9
52 °FOvercast.9 mph64%30.01 "Hg8 mi
8:53 am52 °FOvercast.9 mph61%30.00 "Hg8 mi
7:53 am51 °FOvercast.8 mph61%30.01 "Hg10 mi
6:53 am51 °FOvercast.9 mph63%30.01 "Hg7 mi
5:53 am51 °FOvercast.6 mph63%30.01 "Hg7 mi
4:53 am51 °FOvercast.7 mph63%30.03 "Hg10 mi
3:53 am51 °FOvercast.7 mph63%30.04 "Hg10 mi
2:53 am50 °FOvercast.7 mph68%30.07 "Hg10 mi
1:53 am52 °FOvercast.10 mph59%30.09 "Hg10 mi
1:34 am52 °FMostly cloudy.9 mph59%30.08 "Hg10 mi
1:07 am53 °FMostly cloudy.9 mph56%30.09 "Hg10 mi
12:53 am53 °FOvercast.9 mph55%30.10 "Hg10 mi
12:20 am53 °FOvercast.9 mph52%30.11 "Hg10 mi
11:53 pm
Sun, Dec 8
53 °FPassing clouds.8 mph52%30.11 "Hg10 mi
10:53 pm53 °FPassing clouds.12 mph52%30.11 "Hg10 mi
9:53 pm54 °FPassing clouds.12 mph51%30.14 "Hg10 mi
8:53 pm54 °FPartly cloudy.8 mph51%30.15 "Hg10 mi
7:53 pm54 °FPartly cloudy.7 mph51%30.14 "Hg10 mi
6:53 pm54 °FPartly cloudy.12 mph51%30.15 "Hg10 mi
5:53 pm55 °FPassing clouds.8 mph49%30.14 "Hg10 mi
4:53 pm57 °FPartly sunny.12 mph46%30.16 "Hg10 mi
3:53 pm58 °FBroken clouds.14 mph46%30.16 "Hg10 mi
2:53 pm58 °FBroken clouds.12 mph44%30.17 "Hg10 mi
1:53 pm57 °FBroken clouds.9 mph46%30.19 "Hg10 mi
12:53 pm57 °FBroken clouds.14 mph46%30.23 "Hg10 mi
11:53 am55 °FBroken clouds.14 mph51%30.27 "Hg10 mi
Weather by CustomWeather, © 2019

See weather overview

Advertising